Time,TemperatureF,DewpointF,PressureIn,WindDirection,WindDirectionDegrees,WindSpeedMPH,WindSpeedGustMPH,Humidity,HourlyPrecipIn,Conditions,Clouds,dailyrainin,SolarRadiationWatts/m^2,SoftwareType,DateUTC
2013-03-03 00:22:00,25.0,17.0,-100.00,North,358,5.0,10.0,70,0.00,,,0.05,0.000000,,2013-03-03 05:22:00,
2013-03-03 00:32:00,25.0,17.0,-100.00,North,358,5.0,10.0,70,0.00,,,0.05,0.000000,,2013-03-03 05:32:00,
2013-03-03 00:42:00,25.0,17.0,-100.00,North,358,5.0,10.0,70,0.00,,,0.05,0.000000,,2013-03-03 05:42:00,
2013-03-03 00:52:00,25.0,17.0,-100.00,North,358,5.0,10.0,70,0.00,,,0.05,0.000000,,2013-03-03 05:52:00,
2013-03-03 01:22:00,25.0,19.0,-100.00,NNW,348,3.0,11.0,76,0.00,,,0.05,0.000000,,2013-03-03 06:22:00,
2013-03-03 01:32:00,25.0,19.0,-100.00,NNW,348,3.0,11.0,76,0.00,,,0.05,0.000000,,2013-03-03 06:32:00,
2013-03-03 01:42:00,25.0,19.0,-100.00,NNW,348,3.0,11.0,76,0.00,,,0.05,0.000000,,2013-03-03 06:42:00,
2013-03-03 01:52:00,25.0,19.0,-100.00,NNW,348,3.0,11.0,76,0.00,,,0.05,0.000000,,2013-03-03 06:52:00,
2013-03-03 02:21:00,24.0,19.0,-100.00,North,5,5.0,9.0,81,0.00,,,0.05,0.000000,,2013-03-03 07:21:00,
2013-03-03 02:32:00,24.0,19.0,-100.00,North,5,5.0,9.0,81,0.00,,,0.05,0.000000,,2013-03-03 07:32:00,
2013-03-03 02:42:00,24.0,19.0,-100.00,North,5,5.0,9.0,81,0.00,,,0.05,0.000000,,2013-03-03 07:42:00,
2013-03-03 02:51:00,24.0,19.0,-100.00,North,5,5.0,9.0,81,0.00,,,0.05,0.000000,,2013-03-03 07:51:00,
2013-03-03 03:21:00,23.0,18.0,-100.00,NNW,345,5.0,9.0,82,0.00,,,0.05,0.000000,,2013-03-03 08:21:00,
2013-03-03 03:32:00,23.0,18.0,-100.00,NNW,345,5.0,9.0,82,0.00,,,0.05,0.000000,,2013-03-03 08:32:00,
2013-03-03 03:42:00,23.0,18.0,-100.00,NNW,345,5.0,9.0,82,0.00,,,0.05,0.000000,,2013-03-03 08:42:00,
2013-03-03 03:53:00,23.0,18.0,-100.00,NNW,345,5.0,9.0,82,0.00,,,0.05,0.000000,,2013-03-03 08:53:00,
2013-03-03 04:21:00,23.0,17.0,-100.00,NNW,341,4.0,8.0,77,0.00,,,0.05,0.000000,,2013-03-03 09:21:00,
2013-03-03 04:32:00,23.0,17.0,-100.00,NNW,341,4.0,8.0,77,0.00,,,0.05,0.000000,,2013-03-03 09:32:00,
2013-03-03 04:42:00,23.0,17.0,-100.00,NNW,341,4.0,8.0,77,0.00,,,0.05,0.000000,,2013-03-03 09:42:00,
2013-03-03 04:51:00,23.0,17.0,-100.00,NNW,341,4.0,8.0,77,0.00,,,0.05,0.000000,,2013-03-03 09:51:00,
2013-03-03 05:21:00,23.0,15.0,-100.00,North,2,4.0,9.0,72,0.00,,,0.05,0.000000,,2013-03-03 10:21:00,
2013-03-03 05:32:00,23.0,15.0,-100.00,North,2,4.0,9.0,72,0.00,,,0.05,0.000000,,2013-03-03 10:32:00,
2013-03-03 05:42:00,23.0,15.0,-100.00,North,2,4.0,9.0,72,0.00,,,0.05,0.000000,,2013-03-03 10:42:00,
2013-03-03 05:52:00,23.0,15.0,-100.00,North,2,4.0,9.0,72,0.00,,,0.05,0.000000,,2013-03-03 10:52:00,
2013-03-03 06:22:00,23.0,15.0,-100.00,North,354,4.0,10.0,72,0.00,,,0.05,0.000000,,2013-03-03 11:22:00,
2013-03-03 06:32:00,23.0,15.0,-100.00,North,354,4.0,10.0,72,0.00,,,0.05,0.000000,,2013-03-03 11:32:00,
2013-03-03 06:42:00,23.0,15.0,-100.00,North,354,4.0,10.0,72,0.00,,,0.05,0.000000,,2013-03-03 11:42:00,
2013-03-03 06:52:00,23.0,15.0,-100.00,North,354,4.0,10.0,72,0.00,,,0.05,0.000000,,2013-03-03 11:52:00,
2013-03-03 07:22:00,22.0,16.0,-100.00,North,355,5.0,7.0,78,0.00,,,0.05,1.000000,,2013-03-03 12:22:00,
2013-03-03 07:32:00,22.0,16.0,-100.00,North,355,5.0,7.0,78,0.00,,,0.05,1.000000,,2013-03-03 12:32:00,
2013-03-03 07:43:00,22.0,16.0,-100.00,North,355,5.0,7.0,78,0.00,,,0.05,1.000000,,2013-03-03 12:43:00,
2013-03-03 07:52:00,22.0,16.0,-100.00,North,355,5.0,7.0,78,0.00,,,0.05,1.000000,,2013-03-03 12:52:00,
2013-03-03 08:22:00,22.0,16.0,-100.00,North,3,4.0,9.0,78,0.00,,,0.05,23.000000,,2013-03-03 13:22:00,
2013-03-03 08:32:00,22.0,16.0,-100.00,North,3,4.0,9.0,78,0.00,,,0.05,23.000000,,2013-03-03 13:32:00,
2013-03-03 08:42:00,22.0,16.0,-100.00,North,3,4.0,9.0,78,0.00,,,0.05,23.000000,,2013-03-03 13:42:00,
2013-03-03 08:52:00,22.0,16.0,-100.00,North,3,4.0,9.0,78,0.00,,,0.05,23.000000,,2013-03-03 13:52:00,
2013-03-03 09:22:00,23.0,16.0,-100.00,North,0,5.0,10.0,74,0.00,,,0.05,117.000000,,2013-03-03 14:22:00,
2013-03-03 09:32:00,23.0,16.0,-100.00,North,0,5.0,10.0,74,0.00,,,0.05,117.000000,,2013-03-03 14:32:00,
2013-03-03 09:42:00,23.0,16.0,-100.00,North,0,5.0,10.0,74,0.00,,,0.05,117.000000,,2013-03-03 14:42:00,
2013-03-03 09:52:00,23.0,16.0,-100.00,North,0,5.0,10.0,74,0.00,,,0.05,117.000000,,2013-03-03 14:52:00,
2013-03-03 10:22:00,25.0,15.0,-100.00,North,359,6.0,10.0,66,0.00,,,0.05,273.000000,,2013-03-03 15:22:00,
2013-03-03 10:32:00,25.0,15.0,-100.00,North,359,6.0,10.0,66,0.00,,,0.05,273.000000,,2013-03-03 15:32:00,
2013-03-03 10:42:00,25.0,15.0,-100.00,North,359,6.0,10.0,66,0.00,,,0.05,273.000000,,2013-03-03 15:42:00,
2013-03-03 10:52:00,25.0,15.0,-100.00,North,359,6.0,10.0,66,0.00,,,0.05,273.000000,,2013-03-03 15:52:00,
2013-03-03 11:22:00,26.0,11.0,-100.00,North,11,6.0,11.0,52,0.00,,,0.05,306.000000,,2013-03-03 16:22:00,
2013-03-03 11:32:00,26.0,11.0,-100.00,North,11,6.0,11.0,52,0.00,,,0.05,306.000000,,2013-03-03 16:32:00,
2013-03-03 11:42:00,26.0,11.0,-100.00,North,11,6.0,11.0,52,0.00,,,0.05,306.000000,,2013-03-03 16:42:00,
2013-03-03 11:52:00,26.0,11.0,-100.00,North,11,6.0,11.0,52,0.00,,,0.05,306.000000,,2013-03-03 16:52:00,
2013-03-03 12:22:00,28.0,16.0,-100.00,North,350,5.0,10.0,59,0.00,,,0.02,377.000000,,2013-03-03 17:22:00,
2013-03-03 12:32:00,28.0,16.0,-100.00,North,350,5.0,10.0,59,0.00,,,0.02,377.000000,,2013-03-03 17:32:00,
2013-03-03 12:42:00,28.0,16.0,-100.00,North,350,5.0,10.0,59,0.00,,,0.02,377.000000,,2013-03-03 17:42:00,
2013-03-03 12:52:00,28.0,16.0,-100.00,North,350,5.0,10.0,59,0.00,,,0.02,377.000000,,2013-03-03 17:52:00,
2013-03-03 13:22:00,28.0,12.0,-100.00,North,359,5.0,11.0,51,0.00,,,0.01,474.000000,,2013-03-03 18:22:00,
2013-03-03 13:32:00,28.0,12.0,-100.00,North,359,5.0,11.0,51,0.00,,,0.01,474.000000,,2013-03-03 18:32:00,
2013-03-03 13:42:00,28.0,12.0,-100.00,North,359,5.0,11.0,51,0.00,,,0.01,474.000000,,2013-03-03 18:42:00,
2013-03-03 13:52:00,28.0,12.0,-100.00,North,359,5.0,11.0,51,0.00,,,0.01,474.000000,,2013-03-03 18:52:00,
2013-03-03 14:22:00,29.0,14.0,-100.00,NNW,341,4.0,10.0,53,0.02,,,0.03,368.000000,,2013-03-03 19:22:00,
2013-03-03 14:32:00,29.0,14.0,-100.00,NNW,341,4.0,10.0,53,0.02,,,0.03,368.000000,,2013-03-03 19:32:00,
2013-03-03 14:42:00,29.0,14.0,-100.00,NNW,341,4.0,10.0,53,0.02,,,0.03,368.000000,,2013-03-03 19:42:00,
2013-03-03 14:52:00,29.0,14.0,-100.00,NNW,341,4.0,10.0,53,0.02,,,0.03,368.000000,,2013-03-03 19:52:00,
2013-03-03 15:22:00,28.0,14.0,-100.00,North,350,5.0,10.0,55,0.00,,,0.03,224.000000,,2013-03-03 20:22:00,
2013-03-03 15:32:00,28.0,14.0,-100.00,North,350,5.0,10.0,55,0.00,,,0.03,224.000000,,2013-03-03 20:32:00,
2013-03-03 15:42:00,28.0,14.0,-100.00,North,350,5.0,10.0,55,0.00,,,0.03,224.000000,,2013-03-03 20:42:00,
2013-03-03 15:52:00,28.0,14.0,-100.00,North,350,5.0,10.0,55,0.00,,,0.03,224.000000,,2013-03-03 20:52:00,
2013-03-03 16:22:00,28.0,14.0,-100.00,NNW,330,4.0,9.0,55,0.01,,,0.04,215.000000,,2013-03-03 21:22:00,
2013-03-03 16:32:00,28.0,14.0,-100.00,NNW,330,4.0,9.0,55,0.01,,,0.04,215.000000,,2013-03-03 21:32:00,
2013-03-03 16:42:00,28.0,14.0,-100.00,NNW,330,4.0,9.0,55,0.01,,,0.04,215.000000,,2013-03-03 21:42:00,
2013-03-03 16:52:00,28.0,14.0,-100.00,NNW,330,4.0,9.0,55,0.01,,,0.04,215.000000,,2013-03-03 21:52:00,
2013-03-03 17:22:00,28.0,14.0,-100.00,North,2,4.0,10.0,55,0.00,,,0.04,123.000000,,2013-03-03 22:22:00,
2013-03-03 17:32:00,28.0,14.0,-100.00,North,2,4.0,10.0,55,0.00,,,0.04,123.000000,,2013-03-03 22:32:00,
2013-03-03 17:42:00,28.0,14.0,-100.00,North,2,4.0,10.0,55,0.00,,,0.04,123.000000,,2013-03-03 22:42:00,
2013-03-03 17:52:00,28.0,14.0,-100.00,North,2,4.0,10.0,55,0.00,,,0.04,123.000000,,2013-03-03 22:52:00,
2013-03-03 18:22:00,27.0,15.0,-100.00,North,8,5.0,9.0,61,0.00,,,0.03,66.000000,,2013-03-03 23:22:00,
2013-03-03 18:32:00,27.0,15.0,-100.00,North,8,5.0,9.0,61,0.00,,,0.03,66.000000,,2013-03-03 23:32:00,
2013-03-03 18:42:00,27.0,15.0,-100.00,North,8,5.0,9.0,61,0.00,,,0.03,66.000000,,2013-03-03 23:42:00,
2013-03-03 18:52:00,27.0,15.0,-100.00,North,8,5.0,9.0,61,0.00,,,0.03,66.000000,,2013-03-03 23:52:00,
2013-03-03 19:22:00,26.0,15.0,-100.00,North,350,4.0,10.0,62,0.00,,,0.03,3.000000,,2013-03-04 00:22:00,
2013-03-03 19:32:00,26.0,15.0,-100.00,North,350,4.0,10.0,62,0.00,,,0.03,3.000000,,2013-03-04 00:32:00,
2013-03-03 19:42:00,26.0,15.0,-100.00,North,350,4.0,10.0,62,0.00,,,0.03,3.000000,,2013-03-04 00:42:00,
2013-03-03 19:52:00,26.0,15.0,-100.00,North,350,4.0,10.0,62,0.00,,,0.03,3.000000,,2013-03-04 00:52:00,
2013-03-03 20:22:00,26.0,14.0,-100.00,North,1,4.0,11.0,61,0.00,,,0.03,0.000000,,2013-03-04 01:22:00,
2013-03-03 20:32:00,26.0,14.0,-100.00,North,1,4.0,11.0,61,0.00,,,0.03,0.000000,,2013-03-04 01:32:00,
2013-03-03 20:42:00,26.0,14.0,-100.00,North,1,4.0,11.0,61,0.00,,,0.03,0.000000,,2013-03-04 01:42:00,
2013-03-03 20:52:00,26.0,14.0,-100.00,North,1,4.0,11.0,61,0.00,,,0.03,0.000000,,2013-03-04 01:52:00,
2013-03-03 21:22:00,26.0,13.0,-100.00,NNW,344,4.0,9.0,57,0.00,,,0.03,0.000000,,2013-03-04 02:22:00,
2013-03-03 21:32:00,26.0,13.0,-100.00,NNW,344,4.0,9.0,57,0.00,,,0.03,0.000000,,2013-03-04 02:32:00,
2013-03-03 21:42:00,26.0,13.0,-100.00,NNW,344,4.0,9.0,57,0.00,,,0.03,0.000000,,2013-03-04 02:42:00,
2013-03-03 21:52:00,26.0,13.0,-100.00,NNW,344,4.0,9.0,57,0.00,,,0.03,0.000000,,2013-03-04 02:52:00,
2013-03-03 22:22:00,26.0,13.0,-100.00,NNW,338,5.0,9.0,57,0.00,,,0.03,0.000000,,2013-03-04 03:22:00,
2013-03-03 22:32:00,26.0,13.0,-100.00,NNW,338,5.0,9.0,57,0.00,,,0.03,0.000000,,2013-03-04 03:32:00,
2013-03-03 22:42:00,26.0,13.0,-100.00,NNW,338,5.0,9.0,57,0.00,,,0.03,0.000000,,2013-03-04 03:42:00,
2013-03-03 22:52:00,26.0,13.0,-100.00,NNW,338,5.0,9.0,57,0.00,,,0.03,0.000000,,2013-03-04 03:52:00,
2013-03-03 23:22:00,26.0,13.0,-100.00,NNW,334,4.0,8.0,57,0.00,,,0.03,0.000000,,2013-03-04 04:22:00,
2013-03-03 23:32:00,26.0,13.0,-100.00,NNW,334,4.0,8.0,57,0.00,,,0.03,0.000000,,2013-03-04 04:32:00,
2013-03-03 23:42:00,26.0,13.0,-100.00,NNW,334,4.0,8.0,57,0.00,,,0.03,0.000000,,2013-03-04 04:42:00,
2013-03-03 23:52:00,26.0,13.0,-100.00,NNW,334,4.0,8.0,57,0.00,,,0.03,0.000000,,2013-03-04 04:52:00,